Regional Weather Roundup
Issued by NWS

Home | Current Version | Previous Version | Text Only | Print | Product List | Glossary On
Versions: 1 2 3 4 5 6 7 8 9 10 11 12 13 14 15 16 17 18 19 20 21 22 23 24 25 26 27 28 29 30 31 32 33 34 35 36 37 38 39 40 41 42 43 44 45 46 47 48 49 50
000
ASUS45 KBOU 231910
RWRCO

WEATHER ROUNDUP FOR COLORADO
NATIONAL WEATHER SERVICE DENVER/BOULDER CO
1200 PM MST FRI FEB 23 2018

NOTE: "FAIR" INDICATES FEW OR NO CLOUDS BELOW 12000 FEET WITH NO
SIGNIFICANT WEATHER AND/OR OBSTRUCTIONS TO VISIBILITY.

COZ001>005-013-030-031-232000-
...NORTHWEST COLORADO...

CITY           SKY/WX    TMP DP  RH WIND       PRES   REMARKS
CRAIG          CLOUDY    29  15  56 VRB3      29.89F
HAYDEN         PTSUNNY   32  15  49 E12       29.88F WCI  23
MEEKER         FAIR      31  17  56 S20G29    29.87F WCI  19
RANGELY        MOCLDY    33  19  54 CALM      29.87F
RABBIT EARS PA FAIR      16  10  79 S9G23     29.80F HAZE    WCI   4
STEAMBOAT SPGS PTSUNNY   29  16  58 S3        29.87F
WALDEN         PTSUNNY   25   5  42 SW14G20   29.88F WCI  13
$$

COZ006>008-011-232000-
...WEST CENTRAL VALLEYS...

CITY           SKY/WX    TMP DP  RH WIND       PRES   REMARKS
GRAND JUNCTION CLOUDY    35  27  72 SE15      29.93F WCI  25
MONTROSE       CLOUDY    36  11  35 W15       29.92F
EAGLE          CLOUDY    33  15  47 W7        29.92F WCI  27
RIFLE          CLOUDY    30  23  75 W5        29.93F WCI  25
DELTA          LGT SNOW  35  22  57 W8G18     29.96S WCI  29
NUCLA          LGT SNOW  30  25  80 SW13G21   29.98R WCI  20
$$

COZ017>023-064>068-232000-
...SOUTHWEST COLORADO...

CITY           SKY/WX    TMP DP  RH WIND       PRES   REMARKS
DURANGO        CLOUDY    32  16  51 SW6       29.98F WCI  26
CORTEZ         CLOUDY    36  13  38 S12G22    29.95F
PAGOSA SPRINGS CLOUDY    31  11  44 S18       29.99F WCI  19
TELLURIDE      CLOUDY    23   5  45 S12G17    29.88F WCI  12
WOLF CREEK PAS CLOUDY     7   5  92 S30G40    29.89F WCI -17
$$

COZ009-010-012-014-032>034-037-058>063-232000-
...CENTRAL COLORADO...

CITY           SKY/WX    TMP DP  RH WIND       PRES   REMARKS
ASPEN          CLOUDY    28   4  35 S10       29.86F WCI  19
BUENA VISTA    FAIR      32   4  30 S15G24    29.89F WCI  22
COPPER MTN     CLOUDY    16  -2  45 SE17G25   29.80F HAZE    WCI   0
BERTHOUD PASS  FAIR       9  -4  56 S18G24    29.81S WCI -10
COTTONWOOD PAS PTSUNNY   28   1  31 SW12G23   29.86F WCI  18
GUNNISON       FAIR      28   9  44 CALM      29.90F
GRANBY         FAIR      22  10  58 CALM      29.89F
KREMMLING      FAIR      34  19  55 CALM      29.90F
LEADVILLE      CLOUDY    18   2  49 S15G25    29.84F WCI   4
MONARCH PASS   SNOW      10   7  85 SW31G43   29.92F VSB 1/2 WCI -12
SALIDA         FAIR      34   7  33 S16G25    29.99F WCI  23
SUNLIGHT       PTSUNNY   14  10  85 S10G20    29.87R FOG     WCI   1
WILKERSON PASS FAIR      18   3  53 SW10G20   29.88F WCI   6
$$

COZ069>075-232000-
...SAN LUIS VALLEY/SANGRE DE CRISTO MOUNTAINS...

CITY           SKY/WX    TMP DP  RH WIND       PRES   REMARKS
ALAMOSA        FAIR      38   5  25 SW23G36   29.93F
DEL NORTE      FAIR      30   8  38 NE3       29.94F
LA VETA PASS   FAIR      30   3  31 S26G51    30.02F WCI  16
SAGUACHE       CLOUDY    32   9  37 SW5       29.95F WCI  27
$$

COZ035-036-038>040-232000-
...NORTHERN COLORADO FRONT RANGE...

CITY           SKY/WX    TMP DP  RH WIND       PRES   REMARKS
DENVER INTL AP PTSUNNY   27  21  78 E7        29.99F HAZE    WCI  19
AURORA         MOSUNNY   29  23  77 NE5       29.98F WCI  24
FRONT RANGE AP NOT AVBL
ERIE MUNI ARPT FAIR      28  20  70 NE3       30.07F HAZE
BOULDER MUN AP FAIR      32  16  51 CALM      30.00F
CENTENNIAL     FAIR      29  21  72 N6        29.96F WCI  23
BROOMFIELD     MOSUNNY   28  18  64 CALM      29.99F
FORT COLLINS   FAIR      26  18  71 SE6       30.03F WCI  19
LONGMONT       FAIR      37  18  47 E3        30.03F
$$

COZ041-046-047-076>085-087-088-232000-
...PIKES PEAK/PALMER DIVIDE AND SOUTHERN FOOTHILLS...

CITY           SKY/WX    TMP DP  RH WIND       PRES   REMARKS
COLO. SPRINGS  FAIR      37  16  42 SE15      29.96F
A. F. ACADEMY  FAIR      34  15  44 S8        29.93F WCI  28
SCHRIEVER AFB  NOT AVBL
CHEYENNE MTN   FAIR      31  18  58 SE12      29.89F WCI  21
ELLICOTT         N/A    N/A N/A N/A S10       29.97F
FALCON         FAIR      37   7  28 S10G17    29.95F
FORT CARSON    FAIR      38  19  46 SE13      29.95F
LIMON          FAIR      35  19  52 SE13      30.01F WCI  26
MONUMENT HILL  FAIR      32  14  47 S13       29.94F WCI  22
CANON CITY     SUNNY     37  19  48 E7        29.97F
WALSENBURG     NOT AVBL
TRINIDAD       FAIR      43  14  31 E10       29.95F
$$

COZ042>045-048>051-090-091-232000-
...NORTHEAST COLORADO...

CITY           SKY/WX    TMP DP  RH WIND       PRES   REMARKS
GREELEY ARPT   FAIR      28  18  66 NE6       30.06F HAZE    WCI  22
AKRON          FAIR      33  20  58 SE15      30.05F WCI  23
BURLINGTON     FAIR      30  24  78 SE13      30.10F WCI  20
WRAY           FAIR      36  18  48 SE10      30.14F
YUMA           FAIR      32  14  47 SE13      30.09F WCI  22
STERLING       FAIR      34  21  60 E7        30.08F WCI  28
HOLYOKE        FAIR      37  18  44 E10       30.14F
FORT MORGAN    FAIR      35  17  46 SE9       30.06F WCI  28
$$

COZ086-089-092>099-232000-
...SOUTHEAST COLORADO...

CITY           SKY/WX    TMP DP  RH WIND       PRES   REMARKS
PUEBLO         FAIR      34  20  56 SE8       30.02F WCI  27
LA JUNTA       CLOUDY    25  22  88 E12       30.06F WCI  14
LAMAR          CLOUDY    29  23  78 E8        30.08F WCI  21
SPRINGFIELD      N/A     35  25  66 E12       30.04F WCI  27
$$



USA.gov is the U.S. government's official web portal to all federal, state and local government web resources and services.